TimeHST,TemperatureF,Dew PointF,Humidity,Sea Level PressureIn,VisibilityMPH,Wind Direction,Wind SpeedMPH,Gust SpeedMPH,PrecipitationIn,Events,Conditions,WindDirDegrees,DateUTC
12:53 AM,64.0,60.1,87,30.18,8.0,West,5.8,-,0.10,Rain,Light Rain,260,2013-01-06 10:53:00
1:53 AM,64.9,61.0,87,30.17,8.0,WSW,4.6,-,0.09,Rain,Light Rain,240,2013-01-06 11:53:00
2:19 AM,64.9,62.1,90,30.16,10.0,SSW,6.9,-,0.00,,Overcast,210,2013-01-06 12:19:00
2:53 AM,64.9,62.1,90,30.15,10.0,SSW,5.8,-,0.03,,Overcast,210,2013-01-06 12:53:00
3:53 AM,66.0,62.1,87,30.14,10.0,South,4.6,-,0.00,,Mostly Cloudy,190,2013-01-06 13:53:00
4:05 AM,66.0,62.1,87,30.15,10.0,Variable,4.6,-,N/A,,Mostly Cloudy,0,2013-01-06 14:05:00
4:53 AM,66.0,63.0,90,30.15,6.0,WSW,4.6,-,0.01,Rain,Light Rain,240,2013-01-06 14:53:00
5:53 AM,66.0,61.0,84,30.15,10.0,WSW,6.9,-,0.00,,Mostly Cloudy,240,2013-01-06 15:53:00
6:53 AM,64.9,60.1,84,30.16,10.0,SW,8.1,-,0.00,,Partly Cloudy,230,2013-01-06 16:53:00
7:53 AM,66.0,61.0,84,30.18,10.0,WSW,6.9,-,0.00,Rain,Light Rain,240,2013-01-06 17:53:00
8:53 AM,68.0,64.0,87,30.21,8.0,North,5.8,-,0.07,Rain,Light Rain,360,2013-01-06 18:53:00
9:53 AM,71.1,63.0,75,30.19,10.0,NW,5.8,-,0.00,,Mostly Cloudy,310,2013-01-06 19:53:00
10:53 AM,71.1,64.9,81,30.19,10.0,WNW,3.5,-,0.03,,Mostly Cloudy,300,2013-01-06 20:53:00
11:53 AM,75.0,64.0,69,30.15,10.0,West,4.6,-,N/A,,Mostly Cloudy,280,2013-01-06 21:53:00
12:15 PM,72.0,66.0,81,30.15,2.0,East,10.4,-,0.05,Rain,Heavy Rain,100,2013-01-06 22:15:00
12:35 PM,71.1,64.9,81,30.14,10.0,Variable,3.5,-,0.08,,Overcast,0,2013-01-06 22:35:00
12:53 PM,71.1,66.9,87,30.13,5.0,ESE,3.5,-,0.09,Rain,Light Rain,110,2013-01-06 22:53:00
1:53 PM,73.9,66.9,79,30.09,10.0,WSW,6.9,-,0.00,,Mostly Cloudy,250,2013-01-06 23:53:00
2:08 PM,73.0,66.0,79,30.10,1.5,West,4.6,-,0.00,Rain,Heavy Rain,280,2013-01-07 00:08:00
2:19 PM,73.0,66.9,81,30.09,10.0,North,4.6,-,0.09,Rain,Light Rain,360,2013-01-07 00:19:00
2:28 PM,71.1,66.9,87,30.10,1.8,NNE,8.1,16.1,0.11,Rain,Heavy Rain,20,2013-01-07 00:28:00
2:38 PM,71.1,66.9,87,30.10,10.0,NNW,8.1,-,0.18,Rain,Light Rain,330,2013-01-07 00:38:00
2:53 PM,72.0,66.9,84,30.09,10.0,WNW,3.5,-,0.18,,Mostly Cloudy,300,2013-01-07 00:53:00
3:53 PM,73.0,68.0,84,30.09,10.0,Variable,5.8,-,0.03,,Mostly Cloudy,0,2013-01-07 01:53:00
4:53 PM,71.1,66.0,84,30.10,10.0,SE,4.6,-,0.02,,Overcast,140,2013-01-07 02:53:00
5:47 PM,71.6,66.2,83,30.11,2.0,ESE,13.8,19.6,0.00,Rain,Light Rain,110,2013-01-07 03:47:00
5:53 PM,69.1,64.9,87,30.11,1.0,ESE,8.1,26.5,0.10,Rain,Heavy Rain,110,2013-01-07 03:53:00
6:05 PM,70.0,68.0,93,30.11,10.0,Calm,Calm,-,0.14,Rain,Light Rain,0,2013-01-07 04:05:00
6:11 PM,70.0,68.0,93,30.11,10.0,SW,4.6,-,0.14,,Overcast,230,2013-01-07 04:11:00
6:27 PM,69.1,66.9,93,30.11,10.0,West,8.1,-,0.14,,Overcast,270,2013-01-07 04:27:00
6:53 PM,68.0,64.9,90,30.12,10.0,WNW,6.9,-,0.28,Rain,Light Rain,290,2013-01-07 04:53:00
7:37 PM,68.0,64.9,90,30.12,2.5,West,5.8,-,0.07,Rain,Rain,280,2013-01-07 05:37:00
7:44 PM,68.0,64.9,90,30.12,8.0,West,5.8,-,0.08,Rain,Light Rain,270,2013-01-07 05:44:00
7:53 PM,68.0,64.9,90,30.12,10.0,WSW,4.6,-,0.09,,Overcast,250,2013-01-07 05:53:00
8:24 PM,68.0,64.9,90,30.13,10.0,SW,3.5,-,0.00,Rain,Light Rain,230,2013-01-07 06:24:00
8:32 PM,68.0,64.0,87,30.13,10.0,SW,4.6,-,0.01,,Mostly Cloudy,230,2013-01-07 06:32:00
8:53 PM,68.0,64.9,90,30.13,10.0,West,3.5,-,0.01,,Mostly Cloudy,270,2013-01-07 06:53:00
8:59 PM,68.0,64.9,90,30.15,2.5,North,-9999.0,-,0.00,Rain,Heavy Rain,0,2013-01-07 06:59:00
9:08 PM,68.0,64.9,90,30.14,3.0,ESE,3.5,-,0.15,Rain,Rain,120,2013-01-07 07:08:00
9:26 PM,68.0,64.9,90,30.14,10.0,Calm,Calm,-,0.16,Rain,Light Rain,0,2013-01-07 07:26:00
9:35 PM,68.0,64.9,90,30.14,9.0,Variable,4.6,-,0.17,Rain,Light Rain,0,2013-01-07 07:35:00
9:53 PM,68.0,64.9,90,30.13,10.0,SW,6.9,-,0.17,,Overcast,230,2013-01-07 07:53:00
10:40 PM,66.9,64.0,90,30.12,2.5,West,10.4,-,0.07,Rain,Heavy Rain,270,2013-01-07 08:40:00
10:53 PM,68.0,64.0,87,30.11,10.0,West,5.8,-,0.09,Rain,Light Rain,270,2013-01-07 08:53:00
11:07 PM,66.9,64.0,90,30.12,2.0,SSE,6.9,-,0.10,Rain,Heavy Rain,150,2013-01-07 09:07:00
11:15 PM,66.9,64.9,93,30.12,8.0,SW,4.6,-,0.12,Rain,Light Rain,220,2013-01-07 09:15:00
11:27 PM,66.9,64.0,90,30.11,10.0,WSW,3.5,-,0.13,,Overcast,250,2013-01-07 09:27:00
11:53 PM,66.9,64.0,90,30.10,10.0,WSW,6.9,-,0.13,,Overcast,250,2013-01-07 09:53:00